Flag for Germany

Past Weather in Duisburg, North Rhine-Westphalia, Germany — Yesterday and Last 2 Weeks

Now
81 °F

Sunny.


Feels Like: 81 °F
Forecast: 93 / 68 °F
Wind: 3 mph from North

Location: Duesseldorf

Current Time: Aug 9, 2020 at 11:21:34 am

Latest Report: Aug 9, 2020 at 10:20 am


Visibility: 10 mi

Pressure: 30.04 "Hg

Humidity: 48%

Dew Point: 59 °F

Location of DuisburgLocation

Past Weather in Duisburg — Graph

°F

Duisburg Temperature Yesterday

Maximum temperature yesterday: 99 °F (at 4:20 pm)
Minimum temperature yesterday: 63 °F (at 4:20 am)
Average temperature yesterday: 82 °F

High & Low Weather Summary for the Past Weeks

 TemperatureHumidityPressure
High99 °F (Aug 8, 4:20 pm)100% (Jul 26, 4:50 am)30.18 "Hg (Jul 26, 4:50 am)
Low52 °F (Jul 30, 5:50 am)20% (Aug 8, 4:50 pm)29.71 "Hg (Jul 27, 7:50 pm)
Average72 °F55%29.99 "Hg
* Reported Jul 25 10:20 am — Aug 9 10:20 am, Duisburg. Weather by CustomWeather, © 2020

Note: Actual official high and low records may vary slightly from our data, if they occured in-between our weather recording intervals... More about our weather records

Duisburg Weather History for the Previous 24 Hours

Scroll right to see more
 ConditionsComfort  
Time TempWeatherWind HumidityBarometerVisibility
10:20 am
Sun, Aug 9
81 °FSunny.3 mph48%30.04 "Hg10 mi
9:20 am77 °FPassing clouds.3 mph61%30.04 "HgN/A
8:50 am75 °FSunny.3 mph65%30.04 "Hg10 mi
8:20 am73 °FPassing clouds.3 mph69%30.04 "HgN/A
7:50 am73 °FSunny.5 mph69%30.04 "Hg10 mi
7:20 am73 °FPassing clouds.2 mph69%30.04 "HgN/A
6:50 am72 °FLight rain. Passing clouds.5 mph73%30.04 "HgN/A
6:20 am72 °FSunny.3 mph73%30.04 "Hg10 mi
5:50 am73 °FClear.5 mph69%30.04 "Hg10 mi
5:20 am73 °FClear.3 mph69%30.04 "Hg10 mi
4:50 am73 °FClear.5 mph69%30.04 "Hg10 mi
4:20 am73 °FClear.3 mph69%30.04 "Hg10 mi
3:50 am75 °FClear.6 mph61%30.04 "Hg10 mi
3:20 am75 °FClear.3 mph61%30.04 "Hg10 mi
2:50 am75 °FClear.3 mph61%30.04 "Hg10 mi
2:20 am77 °FClear.6 mph54%30.04 "Hg10 mi
1:50 am77 °FClear.7 mph54%30.04 "Hg10 mi
1:20 am75 °FClear.5 mph54%30.04 "Hg10 mi
12:50 am73 °FClear.3 mph57%30.04 "Hg10 mi
12:20 am75 °FClear.3 mph54%30.07 "Hg10 mi
11:50 pm
Sat, Aug 8
75 °FClear.2 mph54%30.07 "Hg10 mi
11:20 pm79 °FClear.3 mph45%30.07 "Hg10 mi
10:50 pm81 °FClear.5 mph42%30.07 "Hg10 mi
10:20 pm82 °FClear.5 mph37%30.07 "Hg10 mi
9:50 pm86 °FClear.6 mph33%30.07 "Hg10 mi
9:20 pm86 °FClear.7 mph33%30.04 "Hg10 mi
8:50 pm90 °FSunny.9 mph27%30.04 "Hg10 mi
8:20 pm91 °FSunny.9 mph26%30.04 "Hg10 mi
7:50 pm93 °FSunny.10 mph24%30.04 "Hg10 mi
7:20 pm95 °FSunny.9 mph23%30.04 "Hg10 mi
6:50 pm97 °FSunny.9 mph20%30.04 "Hg10 mi
6:20 pm97 °FPassing clouds.7 mph20%30.04 "HgN/A
5:50 pm97 °FSunny.6 mph20%30.04 "Hg10 mi
5:20 pm97 °FPassing clouds.5 mph22%30.04 "HgN/A
4:50 pm97 °FPassing clouds.7 mph20%30.07 "HgN/A
4:20 pm99 °FSunny.8 mph21%30.07 "Hg10 mi
3:50 pm97 °FPassing clouds.8 mph22%30.07 "HgN/A
3:20 pm97 °FSunny.3 mph22%30.07 "Hg10 mi
2:50 pm97 °FSunny.5 mph23%30.07 "Hg10 mi
2:20 pm97 °FPassing clouds.7 mph23%30.07 "HgN/A
1:50 pm97 °FPassing clouds.7 mph23%30.07 "HgN/A
1:20 pm95 °FSunny.5 mph25%30.09 "Hg10 mi
12:50 pm93 °FSunny.5 mph28%30.09 "Hg10 mi
12:20 pm93 °FPassing clouds.5 mph28%30.09 "HgN/A
11:50 am93 °FSunny.3 mph28%30.09 "Hg10 mi
11:20 am91 °FSunny.1 mph30%30.09 "Hg10 mi
Weather by CustomWeather, © 2020

See weather overview